Carmi, IL

9:40 AM CDT on May 25, 2017 (GMT -0500)
Carmi Municipal

Weather History for KCUL - December, 2012

Change the Weather History Date:

Tuesday, December 25, 2012

  Actual Average (KEHR) Record (KEHR)
Temperature  
Mean Temperature 34 °F -  
Max Temperature 37 °F 39 °F 67 °F (1982)
Min Temperature 30 °F 24 °F -14 °F (2004)
Degree Days  
Heating Degree Days 32    
Moisture  
Dew Point 29 °F    
Average Humidity 82    
Maximum Humidity 89    
Minimum Humidity 71    
Precipitation  
Precipitation 0.00 in - - ()
Sea Level Pressure  
Sea Level Pressure 30.07 in    
Wind  
Wind Speed 12 mph (NNE)    
Max Wind Speed 29 mph    
Max Gust Speed 37 mph    
Visibility 7 miles    
Events      
Averages and records for this station are not official NWS values.
T = Trace of Precipitation, MM = Missing Value Source: NWS Daily Summary

Daily Weather History Graph

Daily Weather History Graph

Search for Another Location

Airport or City:

Trip Planner

Search our weather history database for the weather conditions in past years. The results will help you decide how hot, cold, wet, or windy it might be!

Date:

Astronomy

Dec. 25, 2012 Rise Set
Actual Time 7:07 AM CST 4:38 PM CST
Civil Twilight 6:37 AM CST 5:08 PM CST
Nautical Twilight 6:04 AM CST 5:41 PM CST
Astronomical Twilight 5:32 AM CST 6:13 PM CST
Moon 2:46 PM CST 4:39 AM CST
Length of Visible Light 10h 30m
Length of Day
9h 31m
Waxing Gibbous, 94% of the Moon is Illuminated
Dec 25
Waxing Gibbous
Dec 28
Full
Jan 4
Last Quarter
Jan 11
New
Jan 18
First Quarter

Hourly Weather History & Observations

Time (CST) Temp. Windchill Dew Point Humidity Pressure Visibility Wind Dir Wind Speed Gust Speed Precip Events Conditions
12:15 AM 32.0 °F 23.6 °F 28.8 °F 88% 30.10 in 4.0 mi NW 10.4 mph - N/A   Overcast
12:35 AM 32.0 °F 24.8 °F 28.8 °F 88% 30.10 in 4.0 mi NNW 8.1 mph - N/A   Overcast
12:55 AM 32.0 °F 24.2 °F 28.2 °F 86% 30.10 in 4.0 mi NNW 9.2 mph - N/A   Overcast
1:15 AM 31.8 °F 23.3 °F 27.7 °F 85% 30.10 in 5.0 mi NNW 10.4 mph - N/A   Overcast
1:35 AM 31.6 °F 23.7 °F 27.5 °F 85% 30.10 in 5.0 mi NNW 9.2 mph - N/A   Overcast
1:55 AM 31.6 °F 23.1 °F 27.5 °F 85% 30.10 in 5.0 mi North 10.4 mph - N/A   Overcast
2:15 AM 31.1 °F 22.4 °F 26.6 °F 83% 30.11 in 5.0 mi NNW 10.4 mph - N/A   Overcast
2:35 AM 31.1 °F 23.1 °F 26.6 °F 83% 30.12 in 5.0 mi North 9.2 mph - N/A   Haze
2:55 AM 30.9 °F 22.2 °F 26.6 °F 84% 30.13 in 5.0 mi North 10.4 mph - N/A   Haze
3:15 AM 30.9 °F 21.7 °F 26.6 °F 84% 30.13 in 5.0 mi North 11.5 mph - N/A   Haze
3:35 AM 30.9 °F 21.7 °F 26.6 °F 84% 30.13 in 5.0 mi North 11.5 mph - N/A   Haze
3:55 AM 30.9 °F 24.3 °F 26.6 °F 84% 30.13 in 5.0 mi North 6.9 mph - N/A   Overcast
4:15 AM 30.9 °F 22.2 °F 27.1 °F 86% 30.13 in 5.0 mi North 10.4 mph - N/A   Overcast
4:35 AM 30.7 °F 21.4 °F 26.8 °F 85% 30.14 in 5.0 mi North 11.5 mph - N/A   Overcast
4:55 AM 30.6 °F 22.4 °F 27.1 °F 87% 30.14 in 5.0 mi North 9.2 mph - N/A   Overcast
5:15 AM 30.7 °F 22.6 °F 27.3 °F 87% 30.15 in 5.0 mi North 9.2 mph - N/A   Overcast
5:55 AM 30.2 °F 21.3 °F 27.1 °F 88% 30.14 in 5.0 mi North 10.4 mph - N/A   Overcast
6:15 AM 30.4 °F 21.0 °F 27.1 °F 88% 30.13 in 5.0 mi North 11.5 mph - N/A   Overcast
6:35 AM 30.2 °F 20.8 °F 27.1 °F 88% 30.11 in 5.0 mi North 11.5 mph - N/A   Mostly Cloudy
6:55 AM 30.2 °F 21.3 °F 27.1 °F 88% 30.12 in 5.0 mi North 10.4 mph - N/A   Clear
7:15 AM 30.4 °F 23.6 °F 27.5 °F 89% 30.13 in 5.0 mi NNE 6.9 mph 10.4 mph N/A   Mostly Cloudy
7:35 AM 31.1 °F 23.7 °F 27.7 °F 87% 30.16 in 5.0 mi NNE 8.1 mph - N/A   Overcast
7:55 AM 31.3 °F 23.3 °F 28.2 °F 88% 30.14 in 3.0 mi NNE 9.2 mph - N/A   Overcast
8:15 AM 31.8 °F 24.6 °F 28.4 °F 87% 30.16 in 3.0 mi North 8.1 mph - N/A   Overcast
8:35 AM 32.0 °F 24.8 °F 28.9 °F 88% 30.17 in 4.0 mi NNE 8.1 mph - N/A   Overcast
8:55 AM 32.0 °F 25.6 °F 28.9 °F 88% 30.19 in 4.0 mi NNE 6.9 mph - N/A   Overcast
9:15 AM 32.5 °F 25.5 °F 29.3 °F 88% 30.19 in 3.0 mi NNE 8.1 mph - N/A   Overcast
9:35 AM 32.9 °F 27.5 °F 29.8 °F 88% 30.19 in 3.0 mi NNE 5.8 mph - N/A   Overcast
9:55 AM 33.4 °F 25.9 °F 30.0 °F 87% 30.19 in 4.0 mi North 9.2 mph - N/A   Overcast
10:15 AM 34.3 °F 25.9 °F 30.4 °F 85% 30.19 in 5.0 mi North 11.5 mph - N/A   Overcast
10:35 AM 35.1 °F 28.6 °F 31.1 °F 85% 30.19 in 5.0 mi North 8.1 mph - N/A   Overcast
10:55 AM 35.6 °F 28.0 °F 30.9 °F 83% 30.18 in 5.0 mi NNE 10.4 mph - N/A   Haze
11:15 AM 36.1 °F 26.9 °F 30.2 °F 79% 30.15 in 7.0 mi NNE 15.0 mph - N/A   Scattered Clouds
11:35 AM 36.9 °F 27.1 °F 29.5 °F 75% 30.14 in 7.0 mi NNE 17.3 mph 23.0 mph N/A   Scattered Clouds
11:55 AM 37.2 °F 27.9 °F 29.5 °F 74% 30.14 in 10.0 mi NE 16.1 mph - N/A   Mostly Cloudy
12:15 PM 37.2 °F 27.9 °F 28.8 °F 71% 30.13 in 7.0 mi NNE 16.1 mph - N/A   Overcast
12:35 PM 37.4 °F 28.9 °F 28.9 °F 71% 30.13 in 10.0 mi NNE 13.8 mph - N/A   Overcast
12:55 PM 36.9 °F 29.6 °F 29.3 °F 74% 30.13 in 7.0 mi NE 10.4 mph - N/A   Overcast
1:35 PM 36.5 °F 26.0 °F 29.8 °F 77% 30.09 in 7.0 mi NE 19.6 mph - N/A   Overcast
1:55 PM 36.5 °F 27.0 °F 29.7 °F 76% 30.06 in 7.0 mi NE 16.1 mph - N/A   Overcast
2:15 PM 36.7 °F 26.6 °F 30.0 °F 77% 30.04 in 7.0 mi NE 18.4 mph - N/A   Overcast
2:35 PM 37.0 °F 27.4 °F 29.8 °F 75% 30.04 in 7.0 mi NE 17.3 mph 20.7 mph N/A   Overcast
2:55 PM 37.0 °F 28.1 °F 29.7 °F 75% 30.05 in 10.0 mi NE 15.0 mph 20.7 mph N/A   Overcast
3:15 PM 37.0 °F 28.1 °F 29.5 °F 74% 30.05 in 5.0 mi NE 15.0 mph 20.7 mph N/A   Haze
3:35 PM 37.0 °F 28.5 °F 30.0 °F 76% 30.05 in 7.0 mi NNE 13.8 mph 21.9 mph N/A   Overcast
3:55 PM 37.0 °F 26.4 °F 30.2 °F 76% 30.05 in 7.0 mi NE 20.7 mph - N/A   Overcast
4:15 PM 36.9 °F 27.8 °F 30.6 °F 78% 30.04 in 7.0 mi NNE 15.0 mph - N/A   Overcast
4:55 PM 36.9 °F 29.6 °F 30.7 °F 79% 30.08 in 10.0 mi NE 10.4 mph - N/A   Overcast
5:15 PM 36.9 °F 29.6 °F 30.7 °F 79% 30.08 in 10.0 mi NNE 10.4 mph - N/A   Overcast
5:35 PM 36.5 °F 28.2 °F 30.7 °F 80% 30.07 in 10.0 mi NNE 12.7 mph - N/A   Overcast
5:55 PM 36.5 °F 28.7 °F 30.7 °F 80% 30.06 in 10.0 mi NNE 11.5 mph - N/A   Overcast
6:15 PM 36.5 °F 27.4 °F 30.7 °F 80% 30.04 in 7.0 mi NNE 15.0 mph - N/A   Overcast
6:35 PM 36.7 °F 26.3 °F 30.7 °F 79% 30.02 in 10.0 mi NNE 19.6 mph 24.2 mph N/A   Overcast
6:55 PM 36.7 °F 26.9 °F 31.1 °F 80% 30.01 in 10.0 mi NNE 17.3 mph - N/A   Overcast
7:15 PM 36.7 °F 26.9 °F 31.3 °F 81% 29.99 in 7.0 mi NNE 17.3 mph 20.7 mph N/A   Overcast
7:35 PM 36.7 °F 26.0 °F 31.1 °F 80% 29.98 in 7.0 mi NNE 20.7 mph 25.3 mph N/A   Overcast
7:55 PM 36.7 °F 26.9 °F 31.5 °F 81% 29.99 in 10.0 mi NE 17.3 mph 20.7 mph N/A   Overcast
8:15 PM 37.0 °F 27.0 °F 31.3 °F 80% 29.99 in 7.0 mi NE 18.4 mph - N/A   Overcast
8:35 PM 37.0 °F 26.4 °F 31.1 °F 79% 29.98 in 7.0 mi NE 20.7 mph 27.6 mph N/A   Overcast
8:55 PM 36.9 °F 26.5 °F 31.1 °F 80% 29.97 in 10.0 mi NNE 19.6 mph - N/A   Overcast
9:15 PM 36.9 °F 26.8 °F 31.1 °F 80% 29.95 in 7.0 mi NNE 18.4 mph 25.3 mph N/A   Overcast
9:35 PM 36.9 °F 26.5 °F 31.1 °F 80% 29.94 in 10.0 mi NNE 19.6 mph 27.6 mph N/A   Overcast
10:15 PM 36.0 °F 25.0 °F 30.2 °F 80% 29.91 in 7.0 mi NNE 20.7 mph 28.8 mph N/A   Overcast
10:35 PM 35.6 °F 24.0 °F 29.8 °F 80% 29.88 in 10.0 mi NNE 23.0 mph 28.8 mph N/A   Overcast
10:55 PM 35.6 °F 24.2 °F 29.7 °F 79% 29.86 in 10.0 mi NNE 21.9 mph 29.9 mph N/A   Overcast
11:15 PM 35.6 °F 22.7 °F 29.7 °F 79% 29.85 in 10.0 mi NNE 28.8 mph 36.8 mph N/A   Overcast
11:35 PM 35.6 °F 25.2 °F 29.3 °F 78% 29.83 in 10.0 mi NNE 18.4 mph 29.9 mph N/A   Overcast
11:55 PM 35.4 °F 24.3 °F 29.3 °F 78% 29.82 in 10.0 mi NNE 20.7 mph 32.2 mph N/A   Overcast